DateTimeUTC,F1_A11,F1_S11,BsB_S11,BsG_S11,BsR_S11,BbsB_S11,BbsG_S11,BbsR_S11,BaB_A11,BaG_A11,BaR_A11,Tu_S11,T_S11,Uu_S11,U_S11,P_S11,T1_A11
2021-12-06T14:00:00Z,00000200,21000000,,,,,,,0000.23,-000.06,-000.25,20.3,27.3,,00.0,0632.6,31.1
2021-12-06T14:01:00Z,00000200,21000000,,,,,,,0000.25,-000.02,0000.25,20.3,27.3,,00.0,0632.6,31.1
2021-12-06T14:02:00Z,00000200,21000000,,,,,,,-000.37,0000.01,-000.25,20.3,27.3,,00.0,0632.6,31.1
2021-12-06T14:03:00Z,00000200,61000000,,,,,,,0000.34,0000.14,0000.26,20.3,27.3,,00.0,0632.6,31.1
2021-12-06T14:04:00Z,00000200,41000000,-000.11,0000.14,-000.12,-000.11,0000.48,0000.05,-000.15,0000.24,0000.04,20.2,27.0,,00.0,0633.4,31.1
2021-12-06T14:05:00Z,00000200,01000000,-000.68,0000.27,0000.00,0000.31,0000.18,-000.13,0000.02,-000.10,0000.27,20.2,26.9,,00.0,0633.5,31.1
2021-12-06T14:06:00Z,00000200,01000000,0000.02,-000.15,-000.13,0000.08,-000.26,-000.12,-000.13,-000.48,-000.26,20.2,26.9,,00.0,0633.5,31.1
2021-12-06T14:07:00Z,00000200,01000000,0000.38,0000.15,0000.02,0000.16,0000.04,-000.21,0000.37,0000.37,0000.12,20.2,26.8,,00.0,0633.5,31.1
2021-12-06T14:08:00Z,00000200,01000000,-000.00,-000.10,0000.14,-000.32,0000.06,-000.03,-000.31,0000.40,-000.20,20.2,26.9,,00.0,0633.5,31.1
2021-12-06T14:09:00Z,00000200,01000000,-000.57,0000.24,-000.16,-000.18,0000.06,-000.37,0000.38,-000.09,0000.22,20.3,26.9,,00.0,0633.6,31.1
2021-12-06T14:10:00Z,00000200,01000000,0000.34,-000.12,-000.02,0000.06,-000.02,-000.29,0000.14,-000.14,0000.11,20.3,26.9,,00.0,0633.6,31.1
2021-12-06T14:11:00Z,00000200,01000000,0000.02,0000.19,0000.08,0000.26,0000.09,-000.26,-000.03,0000.34,0000.13,20.4,26.9,,00.0,0633.6,31.2
2021-12-06T14:12:00Z,00000200,01000000,-000.16,0000.04,0000.20,0000.44,-000.03,-000.06,0000.29,0000.12,0000.38,20.4,26.9,,00.0,0633.6,31.2
2021-12-06T14:13:00Z,00000200,01000000,-000.15,-000.05,0000.08,0000.05,-000.04,-000.07,-000.24,0000.02,-000.63,20.5,27.0,,00.0,0633.6,31.2
2021-12-06T14:14:00Z,00000200,01000000,0000.41,0000.01,-000.01,0000.29,-000.19,-000.16,0000.09,0000.32,0000.34,20.6,27.0,,00.0,0633.6,31.2
2021-12-06T14:15:00Z,00000200,01000000,0000.84,0000.18,-000.01,0000.01,0000.27,-000.39,0000.31,-000.08,-000.09,20.6,27.0,,00.0,0633.6,31.2
2021-12-06T14:16:00Z,00000200,01000000,0000.16,-000.24,0000.15,0000.19,-000.04,0000.29,-000.15,0000.05,0000.36,20.7,27.0,,00.0,0633.6,31.2
2021-12-06T14:17:00Z,00000200,01000000,0000.18,-000.09,-000.08,-000.17,-000.10,-000.01,0000.32,0000.06,-000.59,20.7,27.1,,00.0,0633.6,31.2
2021-12-06T14:18:00Z,00000200,01000000,-000.52,-000.10,0000.44,-000.46,0000.19,0000.17,-000.39,-000.18,0000.68,20.8,27.1,,00.0,0633.6,31.2
2021-12-06T14:19:00Z,00000200,01000000,-000.17,0000.20,0000.09,-000.52,-000.38,-000.18,0000.09,-000.07,0000.11,20.8,27.1,,00.0,0633.7,31.2
2021-12-06T14:20:00Z,00000200,01000000,-000.44,-000.24,0000.28,-000.18,-000.33,-000.19,-000.06,0000.12,-000.48,20.7,27.1,,00.0,0633.6,31.2
2021-12-06T14:21:00Z,00000200,01000000,0000.14,0000.03,0000.22,-000.30,0000.05,0000.21,-000.17,-000.44,0000.17,20.7,27.1,,00.0,0633.7,31.2
2021-12-06T14:22:00Z,00000200,01000000,0000.12,0000.16,-000.15,-000.29,0000.53,-000.12,0000.18,0000.12,0000.03,20.7,27.1,,00.0,0633.7,31.2
2021-12-06T14:23:00Z,00000200,01000000,0000.56,-000.12,-000.06,-000.81,-000.07,-000.06,-000.18,-000.15,-000.32,20.7,27.1,,00.0,0633.7,31.2
2021-12-06T14:24:00Z,00000200,01000000,-000.36,0000.27,0000.11,-000.38,-000.27,-000.36,-000.00,0000.29,0000.39,20.7,27.1,,00.0,0633.7,31.2
2021-12-06T14:25:00Z,00000200,01000000,-000.07,0000.10,0000.26,0000.51,0000.13,-000.20,0000.14,-000.10,-000.35,20.8,27.1,,00.0,0633.8,31.2
2021-12-06T14:26:00Z,00000200,01000000,-000.33,0000.14,0000.08,-000.36,-000.09,0000.22,-000.32,0000.03,0000.20,20.8,27.2,,00.0,0633.7,31.2
2021-12-06T14:27:00Z,00000200,01000000,-001.27,0000.22,0000.21,0000.61,0000.12,0000.27,0000.10,-000.11,0000.10,20.9,27.2,,00.0,0633.8,31.2
2021-12-06T14:28:00Z,00000200,01000000,-000.19,0000.38,0000.00,-000.63,-000.00,0000.05,0000.01,-000.05,-000.18,20.9,27.2,,00.0,0633.7,31.2
2021-12-06T14:29:00Z,00000200,01000000,0000.91,-000.16,0000.58,0000.41,0000.17,-000.09,-000.24,0000.15,0000.00,21.0,27.2,,00.0,0633.8,31.2
2021-12-06T14:30:00Z,00000200,01000000,0000.15,0000.03,0000.48,-000.40,0000.24,0000.06,0000.19,-000.29,-000.16,21.0,27.3,,00.0,0633.8,31.2
2021-12-06T14:31:00Z,00000200,01000000,-000.10,0000.20,-000.05,-000.43,0000.13,-000.05,-000.26,0000.21,0000.25,21.1,27.3,,00.0,0633.8,31.3
2021-12-06T14:32:00Z,00000200,01000000,-000.21,0000.14,-000.07,-000.21,-000.07,-000.07,0000.29,-000.06,0000.09,21.1,27.3,,00.0,0633.8,31.3
2021-12-06T14:33:00Z,00000200,01000000,0000.57,-000.41,0000.03,-000.27,-000.08,0000.11,-000.12,0000.17,-000.07,21.1,27.3,,00.0,0633.8,31.3
2021-12-06T14:34:00Z,00000200,01000000,0000.78,0000.25,-000.47,-000.53,-000.11,-000.15,0000.11,-000.41,-000.10,21.2,27.3,,00.0,0633.8,31.3
2021-12-06T14:35:00Z,00000200,01000000,-000.46,0000.09,0000.25,-000.16,0000.10,0000.04,-000.10,0000.13,0000.07,21.1,27.4,,00.0,0633.8,31.3
2021-12-06T14:36:00Z,00000200,01000000,0000.13,0000.14,0000.30,0000.01,0000.25,-000.07,-000.18,0000.01,-000.33,21.1,27.4,,00.0,0633.8,31.3
2021-12-06T14:37:00Z,00000200,01000000,-000.11,-000.00,-000.02,-000.57,0000.22,-000.27,0000.10,0000.08,0000.39,21.1,27.3,,00.0,0633.8,31.2
2021-12-06T14:38:00Z,00000200,01000000,-000.37,-000.11,0000.10,0000.85,0000.04,-000.17,0000.24,-000.08,0000.13,21.1,27.3,,00.0,0633.8,31.2
2021-12-06T14:39:00Z,00000200,01000000,-000.66,-000.07,0000.03,0000.64,0000.02,-000.20,0000.02,0000.13,-000.11,21.1,27.3,,00.0,0633.8,31.2
2021-12-06T14:40:00Z,00000200,01000000,0000.64,-000.07,0000.06,0000.10,0000.00,-000.39,-000.09,0000.23,-000.22,21.1,27.4,,00.0,0633.8,31.2
2021-12-06T14:41:00Z,00000200,01000000,0000.11,0000.19,0000.01,0000.20,0000.13,-000.03,0000.11,-000.25,0000.25,21.2,27.4,,00.0,0633.8,31.3
2021-12-06T14:42:00Z,00000200,01000000,0000.32,0000.29,0000.09,0000.25,-000.02,-000.04,0000.19,0000.21,0000.04,21.2,27.4,,00.0,0633.8,31.3
2021-12-06T14:43:00Z,00000200,01000000,0000.61,-000.05,-000.04,-000.12,-000.01,0000.09,-000.19,-000.30,-000.39,21.3,27.5,,00.0,0633.9,31.3
2021-12-06T14:44:00Z,00000200,01000000,0000.04,0000.11,-000.04,0000.30,0000.14,-000.24,-000.03,-000.11,0000.00,21.3,27.5,,00.0,0633.9,31.3
2021-12-06T14:45:00Z,00000200,01000000,0000.17,0000.21,-000.15,-000.27,-000.08,-000.28,0000.06,0000.23,0000.35,21.3,27.5,,00.0,0633.8,31.3
2021-12-06T14:46:00Z,00000200,01000000,0000.10,0000.41,0000.11,0000.06,-000.18,-000.06,0000.22,0000.20,-000.22,21.2,27.5,,00.0,0633.9,31.3
2021-12-06T14:47:00Z,00000200,01000000,0000.10,0000.29,-000.14,-000.26,0000.35,-000.25,0000.06,-000.23,0000.09,21.2,27.5,,00.0,0633.9,31.3
2021-12-06T14:48:00Z,00000200,01000000,-000.69,-000.06,0000.29,-000.20,0000.09,-000.05,-000.22,0000.02,0000.10,21.1,27.4,,00.0,0633.9,31.2
2021-12-06T14:49:00Z,00000200,01000000,-000.70,0000.05,0000.34,-000.24,0000.08,0000.11,-000.07,0000.20,-000.28,21.0,27.4,,00.0,0633.8,31.2
2021-12-06T14:50:00Z,00000200,01000000,0000.01,0000.01,-000.16,-000.13,-000.05,-000.60,-000.08,-000.28,-000.05,21.0,27.4,,00.0,0633.8,31.2
2021-12-06T14:51:00Z,00000200,01000000,0000.77,0000.21,0000.23,-000.38,0000.21,0000.14,0000.16,-000.11,0000.05,20.9,27.3,,00.0,0633.8,31.2
2021-12-06T14:52:00Z,00000200,01000000,0000.13,0000.20,-000.01,-000.10,-000.11,0000.15,-000.03,0000.03,-000.05,20.9,27.3,,00.0,0633.9,31.2
2021-12-06T14:53:00Z,00000200,01000000,0000.16,-000.14,0000.08,-000.32,0000.32,0000.06,-000.17,0000.17,0000.23,20.9,27.3,,00.0,0633.9,31.2
2021-12-06T14:54:00Z,00000200,01000000,-000.23,0000.01,0000.17,0000.34,0000.03,0000.22,0000.34,-000.11,0000.24,21.0,27.3,,00.0,0633.9,31.2
2021-12-06T14:55:00Z,00000200,01000000,0000.88,-000.17,0000.31,0000.23,0000.07,-000.05,-000.01,0000.13,-000.20,21.0,27.3,,00.0,0633.9,31.2
2021-12-06T14:56:00Z,00000200,01000000,-000.16,0000.13,-000.07,0000.17,0000.20,-000.20,0000.09,0000.30,0000.05,21.0,27.4,,00.0,0633.9,31.2
2021-12-06T14:57:00Z,00000200,41000000,,,,,,,0000.83,0000.97,0000.87,21.1,27.4,,00.0,0633.9,31.2
2021-12-06T14:58:00Z,00000200,61000000,,,,,,,-000.66,-000.47,-000.43,20.8,27.5,,00.0,0633.1,31.2
2021-12-06T14:59:00Z,00000200,21000000,,,,,,,0000.14,-000.23,-000.20,20.9,27.6,,00.0,0633.0,31.2
